Flag for United Kingdom Weather past 2 weeks in Oldham, England, United Kingdom

Now
54 °F

Drizzle. Partly sunny.


Feels Like: 48 °F
Forecast: N/A
Wind: 23 mph from Southwest

Location: Manchester Airport

Current Time: Dec 22, 2014 at 2:57:09 PM

Latest Report: Dec 22, 2014 at 2:20 PM


Visibility: N/A

Pressure: 29.86 "Hg

Humidity: 82%

Dew point: 48 °F

Location of OldhamLocation

Historic Weather in Oldham — Graph

°F

Oldham temperature yesterday

Maximum temperature yesterday: 54 °F (at 6:20 PM)
Minimum temperature yesterday: 43 °F (at 6:50 AM)
Average temperature yesterday: 48 °F

Past Weeks' High & Low Weather Summary

 TemperatureHumidityPressure
High55 °F (Dec 18, 3:20 PM)100% (Dec 8, 8:20 AM)30.36 "Hg (Dec 8, 8:20 AM)
Low28 °F (Dec 13, 3:20 AM)66% (Dec 10, 11:20 AM)29.15 "Hg (Dec 12, 3:50 AM)
Average43 °F89%29.83 "Hg
* Reported Dec 7 1:20 PM — Dec 22 1:50 PM, Oldham, Weather by CustomWeather, © 2014

Note: Actual official high and low records may vary slightly from our data, if they occured in-between our weather recording intervals... More about our weather records

Advertising

Oldham weather history for previous 24 hours

 ConditionsComfort  
Time TempWeatherWind HumidityBarometerVisibility
1:50 PM
Dec 22
55 °FDrizzle. Partly sunny.26 mph77%29.83 "HgN/A
1:20 PM55 °FScattered showers. Partly sunny.23 mph77%29.83 "HgN/A
12:50 PM55 °FScattered clouds.24 mph82%29.83 "HgN/A
12:20 PM55 °FScattered clouds.24 mph82%29.86 "HgN/A
11:50 AM54 °FScattered showers. Scattered clouds.23 mph88%29.86 "HgN/A
11:20 AM54 °FDrizzle. Broken clouds.22 mph88%29.86 "HgN/A
10:50 AM54 °FDrizzle. Broken clouds.21 mph88%29.89 "HgN/A
10:20 AM54 °FDrizzle. Partly sunny.23 mph82%29.89 "HgN/A
9:50 AM54 °FBroken clouds.23 mph82%29.86 "HgN/A
9:20 AM54 °FPartly sunny.24 mph82%29.86 "HgN/A
8:50 AM54 °FScattered showers. Partly sunny.21 mph82%29.86 "HgN/A
8:20 AM54 °FPassing clouds.22 mph82%29.86 "HgN/A
7:50 AM54 °FPassing clouds.21 mph82%29.86 "HgN/A
7:20 AM54 °FPassing clouds.21 mph82%29.86 "HgN/A
6:50 AM54 °FPassing clouds.21 mph82%29.86 "HgN/A
6:20 AM54 °FPassing clouds.21 mph82%29.86 "HgN/A
5:50 AM54 °FPassing clouds.18 mph82%29.86 "HgN/A
5:20 AM54 °FPassing clouds.23 mph82%29.86 "HgN/A
4:50 AM54 °FPartly cloudy.25 mph82%29.86 "HgN/A
4:20 AM54 °FPartly cloudy.24 mph82%29.86 "HgN/A
3:50 AM54 °FPassing clouds.25 mph82%29.86 "HgN/A
3:20 AM54 °FClear.29 mph82%29.86 "Hg10 mi
2:50 AM54 °FCool.24 mph82%29.89 "HgN/A
2:20 AM54 °FPassing clouds.26 mph82%29.89 "HgN/A
1:50 AM54 °FPassing clouds.24 mph82%29.89 "HgN/A
1:20 AM54 °FPassing clouds.24 mph82%29.89 "HgN/A
12:50 AM54 °FPassing clouds.25 mph82%29.92 "HgN/A
12:20 AM54 °FPassing clouds.25 mph82%29.92 "HgN/A
11:50 PM
Dec 21
54 °FPassing clouds.20 mph82%29.92 "HgN/A
11:20 PM54 °FPartly cloudy.22 mph82%29.92 "HgN/A
10:50 PM54 °FPassing clouds.21 mph82%29.92 "HgN/A
10:20 PM54 °FPartly cloudy.20 mph82%29.95 "HgN/A
9:20 PM52 °FPassing clouds.22 mph88%29.95 "HgN/A
8:50 PM52 °FPassing clouds.22 mph88%29.95 "HgN/A
8:20 PM52 °FPassing clouds.21 mph88%29.95 "HgN/A
7:50 PM54 °FPassing clouds.23 mph82%29.98 "HgN/A
7:20 PM54 °FPassing clouds.24 mph82%29.95 "HgN/A
6:50 PM54 °FPassing clouds.22 mph82%29.98 "HgN/A
6:20 PM54 °FPassing clouds.20 mph77%29.98 "HgN/A
5:50 PM52 °FPassing clouds.18 mph82%29.98 "HgN/A
5:20 PM52 °FPassing clouds.20 mph82%29.98 "HgN/A
4:50 PM52 °FPassing clouds.20 mph82%30.01 "HgN/A
4:20 PM50 °FPassing clouds.13 mph88%30.01 "HgN/A
3:50 PM50 °FPassing clouds.13 mph82%30.04 "HgN/A
3:20 PM50 °FScattered clouds.12 mph82%30.04 "HgN/A
2:50 PM50 °FPartly sunny.9 mph88%30.07 "HgN/A
2:20 PM50 °FPartly sunny.10 mph82%30.07 "HgN/A
Weather by CustomWeather, © 2014

See weather overviewHow to use our weather pages